THOR ABLESTAR DEB, 1504

Orbit data source: Space-Track

THOR ABLESTAR DEB, 1504 is space debris in LEO originally from a launch on Fri, 13 Aug 1965 UTC launched from the Air Force Western Test Range (AFWTR). Debris objects in space refer to the collection of defunct objects orbiting the Earth. Examples of debris include non-operational satellites, rocket bodies, and fragments generated from explosions, collisions, or faulty payload assembly.

Loading next visibility...
Identifier
1504, 1965-065A
Orbit
LEO
Last TLE update
13 hours ago
Origin
Manufacturer
NRL
Mission
Spacecraft
Bus & Motor
Unknown
Mass
Unknown
Launch date (UTC)
1965-08-13 (60 years ago)
Launch vehicle
Unknown
Launch site
Air Force Western Test Range (AFWTR)
Object type
Payload
Rocket body
Debris
Shape & HBR
Unknown
Radar Cross Section
Small (<0.1 m²)

Expand to show TLE details & history

TLE from 13 hours ago
0 THOR ABLESTAR DEB
1 01504U 65065A   25181.62392645  .00000113  00000-0  18542-3 0  9994
2 01504  89.9441 243.2691 0068628 135.7505 345.5599 13.40253379920615
Epoch: 2025-06-30T14:58Z
TLE epoch observation values (Epoch: 2025-06-30T14:58:27.245Z)
Latitude
58.97863°
Longitude
-80.36796°
Altitude
1,068.655 km
Speed
7.347 km/s
True Right ascension
04h 12m 42s
True Declination
58° 49' 58"
Sunlit
Object was in daylight at epoch
Visualization orbit readout
Latitude
-16.45088°
Longitude
-80.26205°
Altitude
1,090.474 km
Speed
7.318 km/s
Apparent Right ascension
03h 55m 50s
Apparent Declination
-27° 12' 06"
Sunlit
Object is in daylight
Visualization observer readout
Local Sidereal Time
15:30:32
Azimuth
335.655° NNW
Elevation
-76.246°
Doppler factor
1
Orbital elements
Apogee altitude
1,156.757 km
Perigee altitude
1,054.041 km
Semi-major axis
7,483.536 km
Eccentricity
0.00686
Inclination
89.9441°
RAAN
243.2691°
Arg. of periapsis
135.7505°
True anomaly
Unknown
Mean anomaly
345.5599°
Eccentric anomaly
Unknown
Mean motion
3.35261 °/min
Orbital period
107.38 mins
BSTAR
0.00018542
Loading maneuver chart data...
Loading SW <> Apogee altitude chart data...
Loading historical data...
Loading historical data...
Loading historical data...
Loading historical data...
Loading historical data...
Loading historical data...
Loading historical data...

THOR ABLESTAR DEB Visibility forecast

Observer location: undefined°, undefined°

Span
Click to sort rows by Start time (UTC) header in descending order
Start Az.
Max El. time (UTC)
Max El. Az.
Max El.
End time (UTC)
End Az.
12 mins2025-07-01 04:48:09.940Z188.272° SSW2025-07-01 04:54:09.940Z257.636° W42.504°2025-07-01 05:00:09.940Z350.708° N
11 mins2025-07-01 16:04:09.940Z13.439° NNE2025-07-01 16:09:09.940Z90.374° ESE40.785°2025-07-01 16:15:09.940Z167.767° S
7 mins2025-07-01 17:53:09.940Z316.894° NNW2025-07-01 17:56:09.940Z282.279° WNW19.761°2025-07-01 18:00:09.940Z242.762° WSW
|